Temp
14 14 14 14 14 14 14 14 14 14 14 14 15 15 15 15 15 15 14 14 14 14 14 14 14 14 14 14 13 13 13 12 12 12 13 12 12 12 12 12 12 12 12 13 13 13 13 12 12 12 12 12 12 12 12 11 12 12 12 12 11 11 11
14 13 13 13 13 14 14 14 13 14 13 14 14 14 15 15 14 14 14 14 14 14 14 14 14 14 14 14 13 13 13 12 12 12 12 12 12 12 12 12 12 12 12 12 12 12 13 13 13 12 12 12 12 11 12 12 12 12 12 11 11 11 11
14 13 13 13 13 13 13 13 13 13 13 13 13 14 14 14 14 14 13 13 14 14 14 14 14 14 14 14 14 13 13 12 12 12 12 12 12 12 12 12 12 12 12 12 12 12 12 13 13 13 12 12 12 12 12 12 12 11 11 11 11 11 11
14 13 13 13 13 13 13 13 13 13 13 13 13 13 13 13 13 13 13 13 13 13 14 14 13 13 13 13 13 13 13 12 12 12 12 12 13 12 12 12 12 12 12 12 12 13 13 13 13 13 13 12 12 12 12 12 12 12 11 11 11 11 11
13 13 13 13 13 13 13 13 13 13 13 13 13 13 13 13 13 13 13 13 13 13 13 13 13 13 13 13 13 13 13 12 12 12 12 13 13 12 12 12 12 12 12 13 13 13 13 13 13 13 13 13 12 12 12 12 12 11 11 11 11 11 11
13 13 13 13 13 13 13 13 13 13 13 13 13 13 13 13 13 13 13 13 13 13 13 13 13 13 13 13 13 13 13 12 12 12 12 13 13 12 12 12 12 12 12 12 12 13 13 13 13 13 14 13 12 12 12 12 12 12 11 11 11 11 11
13 13 12 12 12 12 13 13 12 12 12 12 12 13 13 13 13 13 13 13 13 13 13 12 12 12 12 12 13 13 13 13 12 12 12 12 12 13 13 12 12 12 12 12 12 12 13 13 13 13 13 13 12 12 12 12 11 11 11 11 11 11 11
12 12 12 12 12 12 12 12 12 12 12 12 12 13 13 13 13 13 13 13 13 13 12 12 12 12 12 12 13 13 13 14 13 12 12 12 13 13 13 12 12 12 12 12 12 12 12 12 13 13 13 13 12 11 12 12 11 11 11 11 11 11 11
12 12 12 12 12 12 12 12 12 12 12 12 12 12 13 13 13 13 13 13 12 12 12 12 12 12 12 12 12 13 13 14 14 13 12 12 13 13 13 13 12 12 12 12 12 12 12 12 12 13 13 13 13 12 11 11 11 11 11 11 11 11 11
12 12 12 12 12 12 12 12 12 12 12 12 12 12 12 13 13 13 13 12 12 11 11 11 12 12 12 12 12 12 13 13 13 13 13 13 13 13 13 13 13 12 12 12 12 12 12 12 12 13 13 13 13 13 12 11 11 11 11 11 11 11 11
11 11 12 12 12 12 12 12 12 12 12 12 12 12 12 12 12 12 12 12 12 11 11 11 11 11 12 12 12 12 12 13 13 13 13 13 13 14 14 13 13 13 12 12 12 12 12 12 12 12 13 13 13 13 13 13 12 12 12 11 11 11 11
11 11 11 12 12 11 12 12 12 12 12 12 12 12 12 12 12 12 12 12 11 11 11 11 11 11 11 12 12 12 12 12 13 13 13 13 14 14 14 14 14 13 13 12 12 12 12 12 12 12 12 12 12 13 13 14 13 13 12 12 11 11 12
11 11 11 11 11 11 11 12 12 12 12 12 12 12 12 12 12 12 12 12 12 12 12 12 12 12 12 12 12 12 12 12 12 13 12 13 13 13 14 14 14 13 13 12 12 12 12 12 12 12 12 12 12 12 12 13 14 13 12 12 12 12 12
11 11 11 11 11 11 11 11 11 12 12 12 12 12 12 12 12 12 11 11 12 12 12 12 12 12 12 12 12 12 12 12 12 12 12 12 13 13 13 14 13 13 13 12 12 12 12 12 12 12 12 12 12 12 12 12 13 13 12 12 12 12 12
10 10 10 10 10 11 11 11 12 12 12 11 12 12 12 12 12 12 11 12 12 12 12 12 12 12 12 12 12 12 12 12 12 12 12 12 12 13 13 13 13 13 13 12 12 12 12 12 12 12 12 12 12 12 12 12 12 12 12 12 11 11 11
10 10 10 10 11 11 11 11 12 12 11 11 12 12 12 12 12 12 12 12 12 13 13 13 12 12 12 12 12 12 12 12 12 12 12 12 12 12 12 13 13 13 13 12 12 12 12 12 12 12 12 12 12 12 12 12 12 12 12 11 11 11 11
9 9 9 10 11 11 11 11 12 12 12 11 11 12 11 12 12 12 12 12 12 12 13 13 12 12 12 12 12 12 12 12 12 12 12 12 12 12 13 13 13 13 12 12 12 12 12 12 12 12 12 12 12 12 12 12 11 12 12 11 11 11 11
9 9 9 10 11 11 11 11 12 12 12 11 11 11 11 12 12 12 12 12 12 12 13 13 12 12 12 12 12 12 12 12 12 12 12 12 12 12 13 13 13 12 12 12 12 12 12 12 12 12 12 12 12 12 12 12 11 11 11 11 11 11 11
9 10 10 11 11 11 11 11 11 11 12 11 11 11 11 12 12 12 12 12 12 12 13 12 12 12 12 12 12 12 12 12 12 12 12 12 12 13 13 13 13 12 12 12 12 12 12 12 12 12 12 12 12 12 12 12 12 11 11 11 11 11 11
11 11 11 11 11 11 11 11 11 12 12 11 11 11 11 11 12 12 12 12 12 12 12 12 12 12 12 12 12 12 12 12 12 12 12 12 12 12 12 12 12 12 12 12 12 12 12 12 12 12 12 12 12 12 12 12 12 11 11 11 11 11 11
10 11 11 11 11 11 11 11 11 12 11 11 10 10 10 11 11 11 12 12 12 12 12 12 12 12 12 12 12 12 12 12 12 12 12 12 12 12 12 12 12 12 11 11 12 12 12 12 12 12 12 12 12 12 12 12 12 12 12 11 11 11 11
10 10 11 11 11 11 11 11 11 11 11 10 9 9 9 10 11 11 11 12 12 12 12 12 12 12 11 11 12 12 12 12 12 12 12 12 12 12 12 12 12 11 11 11 12 12 13 12 11 12 12 12 12 12 12 12 12 12 12 11 11 11 11
10 10 10 11 11 11 11 10 10 10 9 9 9 9 9 10 11 11 11 11 11 11 11 11 11 11 11 12 12 11 11 11 11 11 12 12 12 12 12 12 12 12 11 11 11 12 12 12 12 11 12 12 12 12 12 12 12 11 11 11 11 11 11
10 10 10 10 10 10 10 10 9 9 9 9 9 9 10 10 11 11 11 11 11 11 11 11 11 11 11 12 11 11 11 11 11 12 12 11 11 12 12 12 12 12 12 11 11 11 12 12 12 11 11 11 11 11 12 12 12 11 11 11 11 11 11
9 10 10 10 9 9 9 9 10 10 10 10 10 10 10 10 10 10 10 10 11 11 11 10 11 11 11 11 11 11 11 11 11 11 11 11 11 11 11 11 12 12 12 12 11 11 12 12 12 11 11 11 11 11 11 12 12 11 11 11 11 11 11
9 9 9 9 9 9 9 10 10 10 10 10 10 9 9 9 9 10 10 10 10 10 10 10 10 10 10 11 11 11 11 11 11 11 11 11 11 11 11 11 12 12 12 11 11 11 11 12 12 11 11 10 11 11 11 11 11 11 11 11 10 11 11
9 9 9 9 9 9 9 10 10 10 9 9 9 8 9 9 9 9 9 10 10 10 10 10 10 10 10 10 11 11 11 11 11 11 11 11 11 11 11 11 11 11 11 11 11 11 11 11 11 11 11 10 10 10 10 10 10 10 10 10 10 11 11
8 9 9 9 9 9 9 9 9 9 9 9 8 8 9 9 9 9 9 9 9 9 9 9 9 10 10 10 11 11 11 10 10 10 10 10 10 10 10 10 10 10 11 11 11 11 11 11 11 11 11 11 10 10 10 10 10 10 10 10 10 10 11
8 8 9 9 9 9 9 9 9 9 9 9 8 9 9 10 9 9 9 9 9 9 9 9 9 9 9 10 10 10 10 10 10 10 10 10 10 10 10 10 10 10 11 11 11 11 11 11 11 10 10 11 10 10 10 10 10 10 10 10 10 10 10
7 7 8 9 9 8 8 8 8 8 9 9 9 9 9 9 9 9 9 9 9 9 9 9 9 9 9 9 10 10 10 10 10 10 9 9 9 10 9 9 9 9 10 10 10 10 10 10 10 10 10 10 10 10 10 10 10 10 10 10 10 10 10
7 7 7 7 7 7 8 8 8 8 8 8 8 8 9 9 9 8 8 8 8 8 8 8 9 9 10 10 10 10 10 10 10 10 9 9 9 10 10 9 9 9 9 9 9 9 9 9 10 10 10 10 10 10 9 9 9 10 10 10 10 10 10
7 7 6 6 6 6 7 7 7 7 8 8 8 8 8 8 8 8 7 8 8 8 8 8 8 9 9 10 10 10 10 10 10 10 9 9 9 10 10 9 9 9 8 8 8 8 9 9 9 9 9 9 9 9 8 8 8 9 9 9 10 9 9
6 6 5 5 5 6 6 6 6 7 7 7 7 7 8 8 7 7 7 7 7 7 7 7 7 7 8 9 9 9 10 9 9 9 9 9 9 9 8 8 7 8 8 8 8 8 8 9 9 8 8 9 9 8 7 7 8 8 8 8 8 8 9
6 5 5 5 5 5 5 6 6 6 6 7 7 7 7 7 7 7 6 6 6 6 6 6 6 6 7 7 7 8 8 8 8 8 9 8 8 8 7 7 7 7 8 8 8 8 8 8 8 8 9 9 8 7 7 7 7 7 7 8 8 8 8
5 5 5 5 5 5 5 5 5 6 6 6 6 6 6 6 6 6 6 6 5 5 5 5 5 6 6 6 6 7 7 6 7 7 8 7 7 7 7 7 7 7 8 8 8 8 7 7 8 8 8 7 7 7 7 7 7 7 8 7 7 8 7
5 5 4 4 4 4 5 5 5 5 6 6 6 6 5 5 6 5 5 5 5 5 5 5 5 5 5 6 6 6 6 6 6 7 7 6 5 5 5 5 6 6 7 8 8 7 7 8 8 7 7 7 6 6 7 7 7 7 7 7 7 7 7
5 5 4 4 5 5 5 5 5 5 5 5 5 5 5 5 5 5 5 4 4 4 4 5 5 5 5 5 5 5 5 5 6 6 6 5 5 5 5 5 5 5 6 6 6 7 7 7 7 7 7 7 7 6 7 7 7 6 6 6 6 6 6
Height
1528 1527 1527 1526 1525 1525 1525 1526 1525 1524 1526 1528 1527 1526 1525 1523 1523 1522 1522 1521 1521 1520 1519 1518 1517 1517 1517 1516 1516 1516 1516 1516 1515 1514 1515 1517 1518 1520 1521 1523 1523 1524 1525 1525 1526 1528 1529 1530 1531 1533 1534 1536 1537 1538 1540 1541 1542 1543 1544 1545 1546 1546 1547
1528 1527 1526 1525 1524 1524 1524 1524 1524 1522 1523 1526 1525 1523 1522 1521 1521 1520 1519 1519 1518 1517 1516 1515 1514 1514 1514 1514 1513 1513 1513 1513 1513 1513 1513 1514 1515 1517 1518 1519 1520 1521 1523 1523 1524 1525 1526 1527 1528 1529 1531 1533 1535 1536 1537 1539 1540 1541 1542 1544 1544 1545 1546
1528 1526 1525 1524 1523 1523 1522 1523 1523 1521 1521 1523 1523 1521 1521 1520 1519 1518 1517 1516 1515 1514 1513 1511 1511 1511 1510 1510 1510 1510 1510 1511 1511 1511 1511 1511 1513 1514 1515 1516 1517 1518 1519 1520 1521 1523 1524 1525 1526 1527 1528 1530 1532 1533 1534 1536 1537 1539 1540 1542 1543 1543 1544
1527 1525 1524 1523 1522 1521 1521 1521 1521 1521 1519 1520 1520 1519 1519 1518 1517 1516 1514 1513 1512 1511 1510 1509 1509 1508 1508 1507 1507 1507 1507 1508 1509 1509 1509 1509 1510 1511 1511 1513 1514 1514 1515 1516 1518 1520 1521 1522 1523 1524 1525 1527 1529 1530 1532 1533 1535 1537 1538 1540 1541 1542 1543
1525 1524 1523 1522 1521 1520 1520 1520 1519 1519 1518 1517 1517 1516 1516 1516 1515 1513 1512 1510 1509 1508 1507 1507 1506 1505 1505 1504 1504 1504 1504 1505 1506 1507 1507 1507 1508 1508 1508 1509 1510 1512 1512 1514 1516 1517 1518 1520 1521 1522 1523 1525 1527 1529 1530 1532 1533 1535 1536 1538 1539 1540 1541
1524 1523 1522 1521 1520 1519 1518 1518 1517 1517 1516 1515 1515 1514 1514 1513 1512 1511 1509 1508 1506 1505 1504 1503 1502 1501 1501 1501 1501 1502 1502 1503 1504 1504 1505 1505 1505 1505 1506 1507 1508 1509 1510 1511 1513 1515 1516 1518 1520 1521 1522 1523 1524 1526 1528 1530 1531 1533 1535 1536 1537 1538 1540
1522 1521 1520 1519 1518 1517 1516 1515 1515 1514 1513 1513 1512 1512 1511 1510 1509 1508 1507 1505 1503 1501 1500 1499 1498 1497 1497 1498 1498 1499 1499 1500 1501 1502 1502 1502 1503 1503 1504 1504 1505 1506 1508 1508 1510 1512 1514 1516 1517 1518 1520 1521 1523 1524 1525 1527 1529 1530 1532 1533 1535 1536 1538
1521 1520 1519 1518 1517 1516 1515 1514 1513 1512 1511 1511 1510 1509 1509 1508 1507 1505 1504 1501 1499 1498 1497 1495 1495 1494 1493 1494 1494 1495 1495 1496 1497 1498 1499 1500 1500 1501 1501 1502 1503 1504 1505 1506 1507 1509 1511 1512 1514 1516 1518 1519 1520 1522 1524 1525 1527 1528 1529 1531 1533 1535 1536
1520 1519 1518 1517 1516 1515 1514 1512 1511 1511 1509 1509 1508 1507 1507 1506 1504 1502 1500 1498 1496 1494 1493 1492 1491 1491 1490 1490 1491 1492 1492 1493 1493 1493 1495 1496 1497 1498 1499 1500 1501 1502 1504 1504 1505 1506 1507 1509 1511 1514 1515 1516 1517 1519 1521 1523 1524 1526 1528 1530 1531 1532 1534
1518 1517 1516 1515 1515 1513 1512 1511 1510 1509 1508 1507 1506 1505 1504 1503 1501 1500 1497 1495 1493 1491 1490 1489 1488 1488 1487 1488 1489 1489 1489 1490 1490 1490 1491 1492 1493 1495 1497 1498 1499 1500 1502 1503 1503 1504 1505 1506 1509 1512 1513 1514 1515 1516 1518 1520 1521 1523 1525 1527 1529 1530 1532
1517 1516 1515 1514 1513 1512 1511 1509 1508 1507 1506 1505 1504 1503 1502 1500 1499 1497 1495 1493 1490 1489 1487 1486 1485 1485 1485 1485 1486 1486 1487 1487 1487 1488 1488 1489 1490 1491 1494 1495 1496 1498 1499 1501 1501 1502 1503 1505 1508 1510 1511 1513 1514 1514 1515 1517 1518 1520 1523 1525 1527 1528 1530
1516 1515 1514 1513 1512 1510 1509 1508 1507 1505 1504 1503 1502 1501 1500 1498 1496 1495 1493 1490 1488 1486 1485 1484 1483 1483 1483 1483 1484 1484 1485 1485 1485 1485 1486 1487 1488 1489 1490 1492 1494 1495 1497 1499 1500 1500 1501 1503 1506 1508 1510 1511 1512 1513 1514 1515 1516 1518 1520 1522 1524 1526 1529
1514 1513 1512 1511 1510 1509 1508 1507 1505 1504 1503 1502 1501 1499 1498 1496 1494 1492 1490 1488 1486 1485 1484 1483 1482 1481 1481 1481 1482 1482 1483 1483 1483 1483 1484 1485 1486 1487 1488 1490 1491 1493 1495 1497 1499 1500 1501 1503 1505 1506 1508 1510 1511 1512 1513 1514 1515 1517 1519 1521 1523 1525 1528
1513 1512 1511 1510 1509 1508 1507 1506 1504 1503 1502 1500 1499 1497 1496 1494 1492 1490 1488 1487 1485 1484 1482 1482 1481 1480 1480 1480 1480 1481 1481 1481 1482 1482 1482 1483 1484 1485 1486 1487 1489 1492 1494 1496 1498 1499 1501 1503 1504 1505 1507 1509 1510 1511 1511 1512 1515 1516 1518 1520 1522 1524 1527
1512 1511 1510 1509 1508 1507 1506 1505 1504 1502 1500 1499 1497 1496 1494 1492 1490 1488 1487 1485 1484 1482 1481 1481 1480 1479 1478 1478 1479 1479 1479 1479 1479 1480 1481 1481 1482 1483 1485 1486 1488 1490 1492 1495 1497 1499 1500 1501 1503 1504 1506 1507 1508 1509 1510 1511 1513 1515 1517 1519 1521 1523 1525
1511 1510 1509 1508 1507 1506 1505 1504 1503 1501 1499 1498 1496 1494 1492 1490 1488 1487 1485 1484 1482 1481 1480 1479 1478 1477 1477 1477 1477 1477 1477 1477 1478 1478 1479 1480 1481 1483 1484 1485 1487 1489 1491 1493 1495 1497 1499 1500 1501 1502 1503 1505 1506 1508 1509 1510 1512 1514 1516 1518 1519 1521 1523
1511 1510 1508 1507 1507 1506 1505 1503 1501 1499 1498 1496 1494 1493 1490 1489 1487 1486 1484 1483 1482 1480 1479 1478 1477 1476 1476 1476 1476 1476 1476 1476 1477 1478 1478 1479 1481 1483 1483 1484 1486 1488 1490 1492 1494 1496 1498 1499 1500 1500 1501 1503 1504 1506 1507 1509 1511 1514 1515 1516 1518 1519 1521
1510 1509 1507 1506 1506 1505 1503 1502 1500 1498 1496 1494 1493 1491 1489 1487 1486 1484 1484 1482 1481 1480 1478 1477 1476 1476 1476 1476 1476 1476 1475 1475 1476 1476 1477 1479 1480 1481 1482 1483 1485 1487 1489 1490 1492 1494 1496 1498 1499 1499 1500 1502 1503 1504 1506 1508 1510 1513 1515 1515 1516 1518 1520
1508 1507 1507 1506 1505 1504 1502 1500 1498 1496 1494 1493 1491 1489 1488 1486 1485 1484 1483 1481 1480 1479 1478 1477 1476 1476 1476 1476 1477 1476 1476 1476 1476 1476 1477 1479 1480 1480 1481 1482 1484 1486 1488 1489 1491 1493 1494 1496 1498 1498 1499 1500 1501 1503 1504 1505 1508 1511 1513 1514 1515 1517 1519
1508 1507 1506 1505 1504 1503 1501 1499 1497 1495 1493 1492 1490 1488 1487 1485 1484 1483 1482 1481 1480 1479 1478 1477 1476 1476 1476 1477 1477 1477 1476 1477 1476 1476 1477 1478 1479 1480 1481 1482 1483 1485 1486 1488 1490 1491 1492 1493 1495 1496 1497 1499 1500 1501 1502 1503 1505 1508 1509 1511 1514 1515 1517
1507 1506 1506 1505 1503 1502 1500 1498 1496 1494 1493 1491 1489 1488 1486 1485 1484 1483 1482 1481 1480 1479 1478 1477 1477 1477 1477 1477 1477 1477 1477 1477 1477 1477 1478 1479 1479 1480 1481 1481 1482 1483 1484 1486 1487 1489 1490 1491 1493 1494 1495 1497 1498 1499 1501 1502 1503 1505 1506 1509 1511 1513 1515
1507 1506 1505 1504 1503 1501 1499 1497 1495 1494 1492 1491 1489 1488 1486 1485 1484 1483 1482 1481 1480 1479 1478 1477 1476 1477 1478 1478 1479 1478 1478 1478 1478 1477 1478 1478 1479 1479 1480 1481 1481 1482 1483 1485 1486 1488 1488 1489 1490 1491 1492 1494 1496 1497 1498 1500 1501 1503 1504 1506 1509 1511 1513
1507 1506 1505 1504 1503 1501 1499 1497 1496 1494 1493 1491 1489 1488 1486 1485 1484 1483 1482 1481 1480 1479 1478 1477 1477 1478 1479 1480 1480 1479 1479 1478 1478 1477 1477 1478 1478 1479 1480 1480 1480 1480 1482 1484 1486 1487 1487 1488 1489 1491 1492 1492 1493 1493 1495 1497 1498 1500 1502 1503 1506 1509 1510
1507 1506 1505 1504 1503 1501 1500 1498 1497 1495 1493 1492 1490 1488 1486 1485 1484 1483 1482 1481 1480 1479 1479 1478 1478 1479 1480 1481 1480 1480 1479 1479 1478 1478 1478 1478 1478 1479 1479 1479 1479 1480 1482 1484 1485 1486 1487 1487 1488 1490 1492 1493 1493 1493 1493 1494 1496 1497 1499 1501 1503 1505 1507
1507 1506 1505 1504 1503 1502 1501 1500 1498 1497 1495 1493 1491 1489 1487 1485 1484 1483 1482 1481 1480 1480 1480 1480 1480 1480 1481 1481 1481 1481 1480 1480 1479 1479 1479 1479 1479 1479 1480 1479 1479 1481 1482 1483 1484 1485 1486 1487 1487 1489 1491 1492 1493 1493 1492 1493 1495 1497 1497 1498 1500 1502 1505
1507 1507 1506 1505 1505 1504 1503 1501 1500 1498 1496 1494 1492 1490 1489 1487 1485 1484 1483 1482 1481 1481 1481 1481 1481 1482 1483 1483 1483 1482 1482 1481 1481 1480 1480 1480 1480 1480 1480 1480 1480 1481 1482 1483 1483 1484 1485 1486 1486 1488 1490 1491 1491 1492 1492 1494 1495 1497 1496 1497 1499 1501 1504
1508 1507 1507 1507 1506 1505 1504 1503 1501 1500 1498 1496 1494 1493 1491 1489 1487 1485 1484 1483 1483 1483 1483 1483 1483 1483 1484 1484 1484 1484 1483 1483 1482 1482 1481 1481 1481 1481 1481 1481 1481 1481 1482 1483 1483 1483 1485 1485 1486 1487 1489 1489 1490 1490 1492 1493 1494 1496 1497 1497 1500 1502 1504
1508 1508 1508 1508 1507 1506 1505 1504 1503 1501 1500 1498 1497 1496 1494 1492 1490 1488 1487 1486 1486 1486 1485 1485 1485 1485 1486 1486 1485 1485 1485 1484 1483 1483 1482 1482 1482 1482 1481 1481 1481 1482 1482 1483 1483 1483 1484 1485 1486 1487 1487 1488 1489 1490 1492 1493 1494 1495 1496 1498 1500 1502 1503
1509 1509 1509 1509 1508 1507 1507 1506 1504 1503 1502 1501 1499 1498 1497 1495 1494 1492 1491 1491 1490 1489 1488 1488 1488 1488 1488 1489 1488 1487 1487 1486 1485 1484 1484 1483 1483 1482 1483 1482 1482 1482 1482 1483 1483 1484 1484 1485 1485 1487 1487 1488 1489 1491 1492 1493 1494 1495 1496 1498 1501 1503 1504
1510 1510 1510 1509 1509 1509 1508 1507 1506 1505 1504 1503 1501 1500 1499 1498 1497 1496 1495 1494 1493 1492 1491 1491 1491 1490 1491 1491 1490 1489 1489 1488 1487 1486 1485 1485 1484 1484 1484 1483 1483 1483 1484 1484 1484 1485 1486 1486 1486 1487 1488 1488 1489 1491 1492 1492 1493 1495 1497 1498 1501 1504 1506
1511 1511 1511 1511 1511 1510 1510 1509 1508 1507 1506 1505 1503 1502 1501 1500 1499 1498 1497 1497 1496 1495 1494 1495 1494 1494 1493 1493 1492 1491 1491 1489 1488 1488 1488 1488 1487 1486 1486 1486 1486 1486 1486 1486 1486 1487 1488 1488 1488 1488 1488 1489 1490 1492 1493 1494 1494 1495 1497 1498 1501 1504 1505
1512 1512 1512 1512 1512 1512 1512 1511 1510 1509 1508 1507 1506 1505 1504 1502 1501 1500 1500 1500 1499 1498 1498 1498 1497 1497 1496 1495 1494 1493 1492 1491 1490 1491 1491 1491 1490 1489 1489 1489 1488 1489 1489 1489 1489 1490 1491 1491 1490 1490 1491 1492 1493 1494 1495 1497 1497 1497 1499 1501 1502 1504 1505
1513 1513 1513 1513 1513 1513 1513 1513 1512 1511 1510 1509 1508 1507 1506 1505 1503 1503 1503 1502 1501 1501 1501 1500 1500 1500 1499 1498 1497 1496 1494 1493 1492 1493 1493 1493 1493 1492 1492 1492 1492 1493 1493 1493 1493 1494 1495 1495 1495 1494 1494 1495 1495 1496 1498 1498 1499 1499 1500 1502 1503 1504 1505
1514 1514 1515 1515 1515 1515 1515 1515 1514 1513 1513 1512 1511 1510 1509 1508 1506 1506 1505 1505 1504 1504 1504 1504 1503 1503 1502 1501 1500 1499 1497 1496 1496 1496 1496 1495 1495 1496 1496 1496 1497 1498 1498 1497 1497 1498 1498 1498 1498 1498 1498 1497 1498 1499 1500 1500 1500 1501 1502 1502 1504 1504 1505
1516 1516 1516 1517 1517 1516 1517 1517 1516 1515 1515 1514 1513 1512 1511 1511 1510 1508 1508 1507 1507 1507 1507 1507 1506 1506 1505 1504 1503 1502 1501 1500 1501 1500 1499 1498 1498 1499 1500 1500 1500 1501 1502 1501 1501 1501 1502 1502 1502 1501 1501 1501 1502 1502 1503 1502 1503 1503 1503 1504 1504 1505 1505
1518 1518 1518 1519 1518 1518 1518 1519 1518 1517 1517 1516 1515 1514 1513 1513 1512 1511 1511 1510 1510 1510 1510 1510 1509 1508 1508 1507 1506 1505 1505 1505 1505 1503 1502 1502 1502 1503 1503 1504 1504 1504 1504 1504 1504 1504 1504 1504 1504 1504 1505 1505 1505 1505 1506 1505 1505 1505 1505 1506 1506 1507 1507
1521 1521 1521 1521 1520 1520 1520 1520 1520 1520 1519 1518 1517 1516 1516 1515 1514 1513 1513 1513 1513 1513 1513 1512 1512 1511 1510 1510 1509 1508 1508 1507 1507 1506 1505 1505 1506 1506 1506 1507 1507 1507 1507 1506 1506 1506 1505 1505 1506 1506 1507 1507 1507 1507 1507 1507 1507 1507 1507 1508 1508 1509 1509
Wind_Speed
17 15 15 16 17 17 17 16 18 20 17 13 13 12 12 15 16 16 18 19 20 20 21 23 23 23 24 24 24 25 26 26 27 27 27 28 28 29 29 28 28 28 26 24 23 23 22 25 28 25 23 23 22 21 20 19 18 17 18 17 16 16 15
15 14 15 16 17 18 17 15 16 19 17 12 11 13 14 16 17 18 20 21 21 21 22 24 24 24 24 25 26 26 26 27 28 27 27 27 29 30 31 30 29 28 27 25 23 24 24 24 25 26 25 24 23 23 22 21 19 18 18 17 16 16 16
13 15 17 18 19 19 18 17 16 18 18 16 14 15 15 16 18 20 22 24 24 24 24 25 25 25 25 25 26 27 27 27 27 27 27 27 28 30 31 31 31 30 28 27 25 25 25 23 22 24 27 27 26 25 24 23 21 20 19 18 17 17 17
11 15 17 19 20 21 21 20 19 19 20 19 18 17 17 16 18 20 22 23 24 25 27 27 27 27 26 26 26 27 27 27 27 27 27 27 27 29 31 30 31 29 28 28 28 26 26 26 23 22 24 27 28 27 25 23 22 21 21 20 19 18 17
12 14 16 18 19 20 21 21 20 18 18 18 17 17 16 16 17 18 19 21 22 23 26 28 29 30 28 27 27 27 27 27 27 27 27 26 25 28 30 30 29 28 28 28 28 28 28 27 24 22 21 23 25 27 25 23 22 22 23 22 20 18 17
12 13 15 16 17 18 18 19 19 18 18 18 18 17 16 16 18 19 19 21 22 23 25 26 28 30 29 28 27 27 27 28 27 26 26 25 23 25 28 29 29 28 28 28 28 29 27 25 24 21 19 20 23 26 25 23 23 23 23 23 21 19 18
12 13 15 16 17 18 18 18 19 20 20 20 19 18 17 18 19 20 20 22 24 25 26 26 26 28 29 29 28 26 25 27 26 24 24 23 21 22 25 27 28 28 27 27 29 30 27 25 24 22 21 19 20 23 23 22 24 24 24 24 22 21 19
15 15 16 17 17 18 19 19 19 20 20 20 19 18 18 19 20 20 22 24 26 26 26 26 25 26 27 27 27 25 23 22 23 21 21 21 20 20 23 24 26 27 26 26 29 32 30 27 25 23 23 21 21 21 21 21 24 25 25 25 23 23 21
16 16 17 17 17 18 18 19 19 19 20 20 20 19 19 19 20 21 23 24 25 24 24 24 23 24 25 25 24 24 22 20 20 20 20 19 19 20 22 23 24 26 26 25 28 32 33 30 26 24 25 24 23 22 20 21 24 25 25 24 24 24 22
15 15 16 15 16 17 17 18 19 19 20 20 20 20 20 20 20 21 22 22 21 20 21 21 20 20 22 21 21 22 22 20 20 19 18 18 18 19 21 22 23 24 25 25 27 29 31 28 25 25 25 24 24 24 24 24 26 27 26 25 25 25 23
13 13 14 14 16 17 18 19 20 21 22 21 20 19 19 20 20 20 19 18 16 16 16 16 16 17 18 19 19 20 20 19 19 19 18 19 19 19 20 22 22 23 24 26 27 27 28 26 25 25 26 24 25 25 25 26 28 28 27 26 25 25 24
12 12 14 15 16 17 19 19 20 19 19 17 17 17 17 18 18 17 16 16 15 14 13 12 13 14 16 18 18 18 19 20 20 20 19 19 20 20 21 22 23 24 24 25 25 25 26 26 26 26 26 25 25 25 25 26 27 27 27 28 26 25 24
10 8 8 9 10 12 13 14 14 13 13 13 14 15 16 16 16 16 15 15 14 12 11 11 11 12 14 16 17 18 19 20 21 20 19 20 20 21 22 23 24 23 23 23 23 24 26 26 26 27 26 25 25 25 26 27 25 25 27 27 26 25 23
4 2 2 4 5 7 8 8 9 9 10 12 13 14 15 14 15 15 15 14 13 12 11 11 11 12 13 15 17 17 18 20 20 20 19 20 21 21 21 22 22 23 23 23 23 24 25 26 26 26 25 25 26 27 28 27 25 24 26 26 24 25 22
3 2 1 2 3 4 6 7 7 8 10 11 12 13 14 13 13 14 14 14 13 11 11 11 11 12 13 15 16 17 18 19 19 20 21 21 21 21 22 22 21 22 23 24 24 24 25 26 26 25 24 25 26 27 28 26 23 24 26 26 25 24 22
3 2 1 1 4 5 6 7 8 8 9 10 11 12 12 12 12 13 14 13 11 11 11 10 9 9 10 12 15 16 18 18 17 19 20 21 20 20 21 21 21 22 23 23 24 24 25 25 25 25 25 24 24 25 26 26 24 24 26 27 26 25 23
2 1 1 2 4 5 7 9 10 9 9 10 11 11 12 12 11 12 13 12 10 10 10 9 8 7 8 10 12 14 17 17 15 15 17 18 17 17 18 19 20 21 23 24 24 25 26 25 24 25 24 22 23 24 24 26 25 23 25 28 28 26 25
0 2 3 4 4 5 8 10 11 11 10 10 11 11 11 11 11 11 11 11 9 9 9 8 6 6 7 8 10 12 14 15 14 14 15 14 14 15 17 18 18 19 21 23 24 25 27 25 24 25 24 21 22 22 22 25 25 22 24 28 29 28 27
1 3 4 5 6 7 8 9 10 11 11 10 10 10 10 10 10 10 10 10 9 8 8 7 5 6 6 7 9 10 11 11 11 12 13 12 13 15 15 16 16 16 18 20 21 23 25 25 25 26 24 22 21 21 21 24 25 25 25 27 29 29 29
3 5 6 7 7 8 9 10 10 11 12 11 9 9 9 9 10 10 9 9 8 8 8 7 6 6 6 6 7 8 8 7 7 8 8 10 12 14 14 15 15 15 16 18 18 19 21 23 24 25 24 23 22 21 21 23 25 26 26 26 30 31 30
8 9 8 8 8 9 10 11 12 12 13 11 9 10 11 10 10 10 8 8 9 8 8 8 6 6 6 5 5 7 7 6 7 7 6 8 11 13 14 14 15 15 16 16 17 17 18 20 22 24 24 24 22 22 22 23 25 26 26 28 32 32 32
10 10 9 8 9 10 11 12 12 12 13 12 9 10 11 11 11 10 8 8 8 8 8 7 5 5 4 4 4 5 6 6 7 7 7 7 10 13 14 14 14 15 14 15 16 17 17 19 22 23 24 23 23 23 22 23 24 25 25 29 34 34 34
11 11 10 11 12 13 14 14 13 13 13 13 11 11 11 11 11 10 8 8 8 8 7 5 4 4 3 4 4 3 2 4 6 6 6 7 9 12 13 13 15 15 13 13 14 15 16 18 20 21 22 22 23 24 23 23 25 25 27 31 36 36 35
12 12 13 15 16 17 17 16 16 15 13 13 12 12 11 11 11 10 9 8 8 7 6 5 5 5 3 3 3 2 2 2 1 2 2 4 7 9 10 12 14 14 12 11 12 13 14 15 17 18 19 20 21 22 23 25 27 27 29 33 37 36 35
13 14 16 17 18 18 18 18 18 17 17 16 16 15 14 14 13 12 10 9 8 7 7 6 7 6 4 3 4 3 3 2 1 2 1 2 4 5 7 9 11 11 11 10 10 11 13 13 15 16 17 17 17 18 22 25 27 27 28 33 38 37 34
14 15 17 18 17 18 19 20 20 21 20 21 22 23 23 21 18 15 13 12 11 9 8 8 8 8 7 6 7 6 5 4 2 0 1 2 3 2 3 6 7 8 8 8 8 10 12 14 15 16 15 16 16 17 19 22 25 25 25 29 35 35 32
14 15 16 16 16 17 19 20 21 22 22 23 25 26 25 24 22 18 16 13 11 9 11 12 12 11 10 10 9 9 7 5 3 2 1 1 2 3 4 5 5 6 6 6 7 9 11 14 16 16 15 15 17 18 19 21 23 23 23 25 29 31 31
13 13 14 14 15 17 18 19 21 21 22 23 24 24 25 26 25 23 20 17 17 17 18 19 19 19 17 15 14 13 13 11 8 4 2 1 1 3 4 4 5 5 4 5 7 9 11 14 16 15 13 13 16 18 20 20 19 17 19 22 25 28 29
13 12 12 13 15 17 18 19 20 20 20 21 21 22 23 25 26 26 24 23 25 26 25 25 26 26 24 21 20 20 21 20 17 12 7 2 1 3 3 2 2 3 3 3 5 7 9 11 12 13 13 14 16 18 19 19 14 10 12 16 19 23 25
12 12 12 13 15 17 18 18 19 19 19 19 20 21 22 24 25 26 25 25 26 27 28 27 27 26 26 24 23 23 24 25 26 24 17 8 3 5 6 5 4 3 5 6 6 6 7 9 9 10 12 13 15 16 16 16 15 13 13 14 15 19 23
12 12 13 14 16 17 18 18 19 19 18 19 20 21 22 23 24 25 25 24 25 26 27 26 23 22 23 21 21 20 20 22 24 26 24 18 14 13 10 7 4 3 5 7 7 6 6 8 10 11 12 14 15 14 13 13 13 15 16 15 16 19 21
13 13 14 14 15 17 18 19 19 19 19 20 20 20 21 22 24 25 25 24 25 25 24 23 21 19 19 17 17 15 14 15 18 19 20 19 18 16 12 7 5 6 8 10 10 9 8 8 11 16 17 17 17 16 15 13 11 12 12 12 14 17 17
13 14 15 15 17 18 20 20 20 20 21 21 21 21 22 23 25 26 25 25 24 23 22 21 19 18 17 16 16 15 15 16 16 16 17 20 20 20 17 15 16 13 11 12 13 13 12 9 10 14 14 14 16 15 14 13 12 11 12 12 13 14 14
15 16 16 16 18 20 20 20 20 20 21 22 22 22 23 24 26 27 27 26 26 25 23 22 21 19 19 19 18 18 18 20 20 19 20 22 25 25 23 21 22 19 15 14 13 11 11 10 9 9 9 9 12 12 10 9 9 8 9 10 10 11 11
17 17 17 18 20 21 20 19 19 19 20 20 21 22 24 24 25 27 27 27 28 27 25 24 23 22 21 21 21 21 22 23 22 20 21 23 25 25 23 22 21 17 15 14 12 11 12 11 10 10 10 10 10 8 6 6 5 4 5 6 6 6 6
19 20 20 21 22 22 21 19 19 19 20 20 22 23 25 25 25 26 27 27 28 27 26 25 24 23 22 22 22 22 23 23 21 19 21 24 25 24 22 20 18 15 13 12 11 11 11 11 12 11 10 9 7 5 4 4 3 3 2 2 2 2 3
21 21 22 22 22 23 23 21 20 21 21 21 22 24 25 25 25 25 26 27 26 25 24 24 23 23 22 21 22 22 22 22 20 20 21 24 24 22 21 19 17 15 14 13 12 11 11 10 9 7 5 5 5 5 5 6 6 6 6 5 4 3 3
Wind_Direction
243 250 256 263 269 274 278 282 284 282 280 280 279 276 273 271 269 269 270 270 272 276 277 276 274 272 269 267 267 264 261 257 253 249 248 250 252 252 248 243 238 234 233 233 229 223 214 208 210 213 218 224 224 223 226 230 231 228 224 217 211 209 209
240 251 261 266 270 275 279 283 286 290 295 300 290 277 275 277 273 271 269 265 266 271 272 270 271 272 270 268 265 264 262 259 255 253 251 252 256 256 255 248 238 228 225 227 222 218 219 215 211 210 212 219 221 223 226 226 225 225 225 221 217 215 210
249 253 259 265 270 276 280 282 287 294 300 303 295 284 280 281 279 278 276 270 268 269 267 265 265 267 268 268 264 261 262 261 259 256 255 257 258 258 258 251 238 227 224 224 218 213 216 221 221 215 213 215 216 220 224 222 218 218 220 220 218 215 212
248 251 255 260 265 272 276 279 284 288 292 293 294 292 289 287 284 283 283 280 274 271 268 266 265 265 266 266 263 260 260 261 260 257 256 257 257 257 257 250 241 236 234 230 224 218 217 218 221 220 219 219 218 219 221 218 216 216 216 217 216 215 213
249 253 259 263 266 272 278 281 285 288 292 293 293 293 292 289 286 285 286 284 279 273 270 269 267 266 265 263 262 260 261 261 260 258 255 255 255 256 255 249 243 240 240 239 232 226 221 217 220 221 222 221 218 218 220 218 216 215 215 215 215 217 213
254 262 268 273 276 279 284 287 288 288 290 292 292 294 295 292 289 289 288 287 284 280 276 273 271 268 265 262 262 263 263 262 259 256 255 256 257 258 256 251 246 241 239 239 233 224 219 218 221 224 225 222 216 215 217 218 217 215 215 217 217 217 214
256 264 269 274 277 278 280 282 284 284 286 290 294 298 299 296 294 294 295 293 291 287 281 276 273 271 267 264 262 260 260 262 262 257 256 257 257 258 256 251 248 245 241 236 227 219 215 217 221 222 223 218 214 215 214 212 214 214 213 215 217 215 212
262 266 267 270 273 274 276 277 280 283 287 292 298 299 298 298 298 299 299 298 296 293 286 278 273 270 267 264 261 259 258 259 258 255 255 256 253 254 256 253 248 245 241 233 224 218 218 220 222 225 223 210 203 209 213 211 211 213 213 213 213 212 209
260 264 266 268 269 272 274 276 280 285 290 295 299 298 297 300 301 302 302 301 297 294 288 280 274 270 266 261 258 261 259 251 245 244 247 250 246 247 254 256 251 246 240 234 228 225 224 223 222 226 226 216 205 200 203 209 210 212 214 213 209 208 209
251 257 261 262 263 266 270 275 280 285 289 294 296 297 300 302 303 304 304 300 295 291 289 284 279 274 269 260 256 260 257 246 239 237 238 240 237 238 247 253 252 246 240 237 235 231 227 223 220 224 225 224 220 209 200 203 209 211 211 209 208 207 206
249 255 259 260 263 268 273 277 281 285 288 290 292 297 301 303 305 306 303 299 297 295 294 292 285 277 268 261 258 256 249 242 238 233 232 234 233 231 237 245 248 244 240 239 238 234 229 220 216 222 226 227 229 224 215 209 209 211 207 203 207 210 205
259 262 264 265 268 272 277 281 285 289 292 293 294 298 302 306 308 307 305 307 309 304 297 294 287 274 260 256 259 253 242 239 238 234 230 230 229 227 229 236 240 240 239 238 234 233 231 221 216 221 224 225 228 229 228 223 215 209 204 202 204 209 205
273 277 274 276 281 283 285 289 294 300 302 300 300 301 305 311 312 308 307 314 317 312 304 294 284 274 259 254 256 251 241 238 238 236 233 231 228 226 227 231 235 236 235 234 231 230 228 221 219 222 221 221 225 226 227 228 225 212 202 203 206 205 203
267 287 316 316 310 303 303 305 307 309 307 304 302 303 306 312 314 310 309 313 314 313 309 295 280 273 263 255 252 250 245 240 239 238 237 235 230 227 227 229 232 233 232 232 229 227 227 222 221 222 220 219 223 224 222 223 227 217 201 200 208 204 199
130 117 75 342 316 315 316 315 311 307 306 305 304 304 306 310 313 313 313 311 305 305 308 300 283 271 265 256 251 251 250 243 238 237 237 235 231 229 229 229 230 229 229 230 229 227 228 225 223 222 220 218 219 222 222 220 222 218 203 198 204 202 197
103 117 117 316 317 322 319 313 306 305 309 311 311 310 310 309 309 312 316 314 304 302 306 305 292 276 268 259 253 254 253 244 235 235 235 230 228 230 230 229 229 226 225 228 230 233 232 228 227 228 225 221 220 221 222 221 218 214 206 199 199 200 197
62 360 305 315 325 323 317 313 310 314 318 320 324 324 318 313 311 312 317 318 312 308 310 312 307 292 278 263 254 257 258 247 232 232 233 227 227 230 229 227 226 226 227 227 227 233 236 233 232 234 230 225 223 222 221 220 218 214 209 202 199 201 201
31 328 324 338 344 333 327 323 320 323 326 326 331 332 325 320 321 322 324 322 316 315 316 320 322 309 290 268 255 257 261 253 238 232 230 225 225 227 226 225 225 228 231 230 230 233 236 233 230 233 234 229 223 220 220 220 217 213 211 205 201 202 205
281 344 6 9 4 352 345 341 336 336 338 335 331 332 332 332 331 331 332 328 321 322 324 322 321 314 294 268 253 254 256 252 245 241 232 223 224 227 228 229 231 234 237 236 235 235 234 230 227 230 232 230 226 221 219 219 214 208 209 210 207 204 205
45 43 43 31 14 2 355 353 351 349 348 344 333 332 343 351 346 336 332 331 327 329 332 327 321 311 294 272 253 255 255 242 240 244 234 224 227 231 233 235 236 239 242 239 234 231 231 229 228 229 229 228 228 224 218 216 213 209 210 214 213 208 204
60 62 56 38 16 2 356 353 352 352 355 356 348 341 348 357 353 342 337 334 330 331 333 331 327 314 299 284 255 251 251 242 241 244 234 228 231 233 235 237 239 240 241 238 230 227 232 234 229 228 228 225 223 222 217 214 215 214 212 215 215 208 202
67 68 56 37 17 5 0 358 358 2 5 6 359 345 346 351 351 350 350 347 341 339 337 335 335 325 314 317 296 265 251 248 248 245 239 231 227 228 233 238 242 243 241 237 231 228 231 234 232 230 229 224 219 219 216 215 218 215 208 209 211 205 200
73 68 51 39 31 25 24 22 22 22 18 14 6 354 351 352 354 0 3 359 355 353 352 351 350 346 340 336 325 306 288 266 249 242 247 242 233 232 237 241 242 243 243 238 233 230 227 228 230 233 233 228 220 217 215 214 215 211 204 204 206 202 200
73 63 54 51 49 46 44 42 41 40 34 26 15 3 357 357 5 16 17 10 8 10 14 16 14 17 11 339 327 336 351 331 222 216 254 254 248 247 243 242 243 243 245 241 233 231 227 224 228 231 234 234 228 222 220 215 211 208 205 203 203 203 201
74 66 64 63 61 58 55 53 52 49 44 41 36 30 29 29 33 36 35 35 35 33 35 38 37 43 48 19 1 357 346 353 148 176 203 220 238 249 242 239 243 246 249 248 240 235 228 223 226 226 225 224 221 218 220 218 212 209 207 203 201 202 202
78 75 75 74 69 64 60 57 54 51 49 48 46 43 42 41 44 46 48 52 51 44 49 55 50 44 40 30 21 16 13 12 22 76 246 227 216 230 242 242 250 254 250 242 236 233 223 215 219 222 214 208 206 203 207 214 214 214 214 208 202 202 202
84 84 85 81 73 66 60 57 55 54 53 52 52 50 47 46 47 47 47 54 64 76 82 77 64 51 43 39 31 22 21 19 14 28 5 274 245 244 242 239 249 256 246 229 221 219 214 210 213 217 211 203 202 200 200 208 213 214 215 211 203 200 201
92 92 90 85 76 69 64 60 59 57 56 58 59 58 56 55 55 54 55 65 76 83 81 75 67 59 51 50 49 43 39 36 27 17 13 7 282 239 229 225 235 247 247 226 208 203 208 214 215 215 211 201 201 202 201 206 212 212 211 208 203 202 205
100 96 90 84 80 75 70 67 65 64 64 67 69 68 65 64 66 67 68 73 76 76 74 71 69 65 61 59 60 60 55 50 45 37 24 357 211 181 176 180 205 217 210 186 179 186 203 213 211 207 204 196 193 196 196 198 200 197 198 202 202 205 207
101 94 85 80 80 79 76 72 70 69 69 72 74 74 73 74 76 77 76 74 75 77 77 76 72 69 67 63 60 60 56 52 51 46 39 37 74 100 89 78 87 137 162 151 148 166 193 206 204 202 199 189 186 189 187 187 188 181 186 199 199 200 203
103 94 85 80 80 80 77 74 72 72 71 74 77 78 80 81 82 82 80 77 77 79 79 76 69 64 64 61 57 54 48 47 48 45 41 42 50 56 57 57 70 131 145 132 131 147 174 193 187 180 179 176 175 175 165 167 177 176 182 193 191 191 196
106 99 91 86 84 82 81 79 77 76 75 77 80 82 83 86 86 86 85 83 82 82 80 74 65 58 57 57 55 54 50 51 52 47 41 41 45 46 45 55 100 129 128 118 116 118 123 140 144 138 139 144 145 140 133 136 147 154 160 171 178 187 192
105 101 95 90 88 86 85 84 81 80 79 80 82 84 85 88 89 88 87 86 85 82 79 76 71 66 66 66 63 63 65 68 70 69 62 58 58 58 60 74 83 75 74 88 94 99 104 107 112 114 117 120 118 116 121 125 127 135 143 147 157 171 178
96 98 96 93 92 90 88 87 84 83 83 83 83 83 84 86 87 86 84 82 80 78 75 74 74 73 73 73 72 72 75 78 81 82 78 73 72 70 71 81 78 61 54 72 79 83 96 102 104 104 101 98 101 108 118 119 115 122 131 137 148 159 165
89 93 96 96 95 94 92 91 90 88 88 87 85 84 83 84 84 84 83 81 78 76 75 73 72 71 69 69 69 70 73 76 78 79 78 77 77 76 76 81 79 68 59 63 63 72 84 78 66 68 74 80 92 103 110 109 107 110 113 121 141 153 153
94 97 99 98 98 98 97 95 95 95 93 91 90 89 87 86 85 84 83 82 80 79 77 74 72 71 69 67 67 67 67 67 67 69 71 71 71 73 75 77 79 78 72 66 70 82 79 54 36 44 57 59 60 59 50 51 51 40 51 73 102 137 133
99 101 102 103 103 104 103 101 100 98 95 93 92 91 90 89 88 87 84 83 81 79 77 74 71 68 67 65 64 64 64 64 62 62 66 67 65 65 66 67 69 73 74 77 84 90 86 73 63 65 67 51 36 18 359 356 359 1 3 7 12 30 62